Regional Weather Roundup
Issued by NWS

Home | Current Version | Previous Version | Graphics & Text | Print | Product List | Glossary On
Versions: 1 2 3 4 5 6 7 8 9 10 11 12 13 14 15 16 17 18 19 20 21 22 23 24 25 26 27 28 29 30 31 32 33 34 35 36 37 38 39 40 41 42 43 44 45 46 47 48 49 50
000
ASUS43 KLSX 190707
RWRMO

WEATHER SUMMARY FOR MISSOURI
NATIONAL WEATHER SERVICE SPRINGFIELD MO
200 AM CDT FRI SEP 19 2014

NOTE: "FAIR" INDICATES FEW OR NO CLOUDS BELOW 12,000 FEET WITH NO
       SIGNIFICANT WEATHER AND/OR OBSTRUCTIONS TO VISIBILITY.
       CURRENT SKY AND/OR WEATHER CONDITIONS ARE NOT AVAILABLE FOR
       CHILLICOTHE AND FARMINGTON.

MOZ001>031-035>038-043-044-053-054-190800-
...NORTHERN AND WESTERN MISSOURI...

CITY           SKY/WX    TMP DP  RH WIND       PRES   REMARKS
KANSAS CTY INT CLEAR     60  59  96 SE7       30.02S
KANSAS C DTWN  CLEAR     62  60  93 E5        30.02S
LEE`S SUMMIT   CLOUDY    62  61  96 SE6       30.04R
ST JOSEPH      CLEAR     60  59  96 SE6       30.02S
CHILLICOTHE      N/A     61  57  87 VRB3      30.06S
KIRKSVILLE     CLEAR     55  51  86 SE6       30.07F

$$
MOZ066>068-077>081-088>096-101>105-190800-
...SOUTHWEST MISSOURI...

CITY           SKY/WX    TMP DP  RH WIND       PRES   REMARKS
SPRINGFIELD    CLOUDY    62  60  93 SE8       30.04S
JOPLIN         PTCLDY    63  61  93 SE7       30.02S

$$
MOZ032>034-039>042-045>050-055>058-069>072-190800-
...CENTRAL MISSOURI...

CITY           SKY/WX    TMP DP  RH WIND       PRES   REMARKS
COLUMBIA       MOCLDY    60  57  89 E6          N/A
JEFFERSON CITY MOCLDY    59  57  93 CALM      30.07R
ROLLA          CLEAR     57  56  96 E6        30.06S FOG
SEDALIA        FOG       60  59  96 SE6       30.06R VSB<1/4
WHITEMAN AFB   CLEAR     59  58  98 SE3       30.04R
OSAGE BEACH    CLOUDY    57  54  88 CALM      30.06S VSB 1/4

$$
MOZ051-052-059>065-190800-
...EAST CENTRAL MISSOURI...

CITY           SKY/WX    TMP DP  RH WIND       PRES   REMARKS
ST LOUIS INTL  CLEAR     61  54  77 E3        30.09R
SPIRIT OF STL  FOG       52  52 100 CALM      30.07S VSB 3/4
ST CHARLES     CLEAR     54  53  97 CALM      30.08S

$$
MOZ072>076-082>087-097>100-106>115-190800-
...SOUTH CENTRAL AND SOUTHEAST MISSOURI...

CITY           SKY/WX    TMP DP  RH WIND       PRES   REMARKS
CAPE GIRARDEAU CLEAR     57  56  96 E3        30.06R FOG
FARMINGTON     MOCLDY    57  54  88 CALM      30.09S
POPLAR BLUFF   CLOUDY    61  57  87 NE5       30.04R
WEST PLAINS    FOG       55  53  93 CALM      30.07S VSB 1/4

$$



USA.gov is the U.S. government's official web portal to all federal, state and local government web resources and services.